STARLINK-38280, 100265

Orbit data source: Space-Track

STARLINK-38280, 100265 is a payload satellite owned by SpaceX/Seattle (US) in SSO that was launched on Sat, 08 Aug 2026 UTC launched from the Air Force Western Test Range (AFWTR). Payload-class satellites include a variety of spacecraft equipped with specific instruments for various scientific and technological missions. These include communications satellites like Starlink; space stations such as the ISS; scientific satellites like the Hubble; Earth observation satellites from companies like Planet Labs, Umbra, and HawkEye 360; GPS; miniature CubeSats for education and research; and military/defense satellites.

Not visible in the next 10 days
Identifier
100265, 2026-181V
Orbit
SSO
Country
Flag of USUS
Related business
Manufacturer
SpaceX/Seattle
Mission
Operational spacecraft
Bus & Motor
STARLINK V2MO, Unknown motor
Mass
575 kg wet, ~530 kg dry
Launch date (UTC)
2026-08-08 (1 month ago)
Launch vehicle
Unknown
Launch site
Air Force Western Test Range (AFWTR)
Object type
Payload
Rocket body
Debris
Shape & HBR
BOX + PAN, 17.7 m
Radar Cross Section
RCS unknown

Expand to show TLE details & history
Last TLE update: 5 hours ago

TLE from 5 hours ago
0 STARLINK-38280
1 A0265U 26181V   26249.63908808  .00050785  00000-0  33934-3 0  9996
2 A0265  97.2850 292.6326 0001219  97.3710 262.7693 15.75189629  5773
Epoch: 2026-09-06T15:20Z
TLE epoch observation values (Epoch: 2026-09-06T15:20:17.210Z)
Latitude
-0.00008°
Longitude
76.82958°
Altitude
347.363 km
Speed
7.7 km/s
True Right ascension
19h 30m 31s
True Declination
0° 00' 00"
Sunlit
Object was in full shadow at epoch
Visualization orbit readout
Latitude
Unknown
Longitude
Unknown
Altitude
Unknown
Speed
Unknown
Apparent Right ascension
Unknown
Apparent Declination
Unknown
Sunlit
N/A
Visualization observer readout
Local Sidereal Time
12:45:30
Azimuth
Unknown
Elevation
Unknown
Doppler factor
Unknown
Orbital elements
Apogee altitude
341.798 km
Perigee altitude
340.16 km
Semi-major axis
6,719.116 km
Eccentricity
0.00012
Inclination
97.285°
RAAN
292.6326°
Arg. of periapsis
97.371°
True anomaly
262.75544°
Mean anomaly
262.7693°
Eccentric anomaly
262.76237°
Mean motion
3.94071 °/min
Orbital period
91.35 mins
BSTAR
0.00033934
Loading maneuver chart data...
Computing Atmospheric mass density...
Loading historical data...
Loading historical data...
Loading historical data...
Loading historical data...
Loading historical data...
Loading historical data...
Loading historical data...

Documentation

Showing up to 5 results
|